TimeCST,TemperatureF,Dew PointF,Humidity,Sea Level PressureIn,VisibilityMPH,Wind Direction,Wind SpeedMPH,Gust SpeedMPH,PrecipitationIn,Events,Conditions,WindDirDegrees,DateUTC
12:52 AM,37.4,35.6,93,29.85,10.0,SW,3.5,-,N/A,,Mostly Cloudy,220,2012-11-06 06:52:00
12:55 AM,37.9,36.0,93,29.89,10.0,Calm,Calm,-,N/A,,Mostly Cloudy,0,2012-11-06 06:55:00
1:20 AM,39.2,35.6,87,29.86,10.0,WNW,9.2,-,N/A,,Scattered Clouds,300,2012-11-06 07:20:00
1:55 AM,39.9,39.0,97,29.91,10.0,WNW,13.8,-,N/A,,Clear,300,2012-11-06 07:55:00
2:55 AM,41.0,37.9,89,29.95,10.0,NW,16.1,-,N/A,,Clear,320,2012-11-06 08:55:00
3:55 AM,37.9,35.1,89,29.96,10.0,NW,12.7,-,N/A,,Clear,310,2012-11-06 09:55:00
4:55 AM,37.0,33.1,86,29.97,10.0,WNW,12.7,-,N/A,,Clear,290,2012-11-06 10:55:00
5:55 AM,37.0,32.0,82,29.98,10.0,WNW,15.0,-,N/A,,Clear,290,2012-11-06 11:55:00
6:55 AM,37.0,30.9,79,29.99,10.0,WNW,16.1,-,N/A,,Clear,300,2012-11-06 12:55:00
7:55 AM,39.0,30.9,73,30.02,10.0,WNW,23.0,29.9,N/A,,Clear,300,2012-11-06 13:55:00
8:55 AM,41.0,32.0,70,30.03,10.0,WNW,21.9,32.2,N/A,,Clear,300,2012-11-06 14:55:00
9:55 AM,44.1,32.0,63,30.03,10.0,NW,27.6,36.8,N/A,,Clear,310,2012-11-06 15:55:00
10:55 AM,48.9,32.0,52,30.03,10.0,NW,29.9,35.7,N/A,,Clear,310,2012-11-06 16:55:00
11:55 AM,51.1,32.0,48,30.03,10.0,NW,27.6,38.0,N/A,,Clear,320,2012-11-06 17:55:00
12:55 PM,52.0,32.0,47,30.02,10.0,NW,29.9,39.1,N/A,,Clear,320,2012-11-06 18:55:00
1:55 PM,53.1,32.0,45,30.02,10.0,NNW,29.9,38.0,N/A,,Clear,330,2012-11-06 19:55:00
2:55 PM,53.1,32.0,45,30.03,10.0,NNW,23.0,32.2,N/A,,Clear,330,2012-11-06 20:55:00
3:55 PM,52.0,30.9,45,30.04,10.0,NNW,19.6,-,N/A,,Clear,340,2012-11-06 21:55:00
4:55 PM,48.9,32.0,52,30.06,10.0,NNW,16.1,-,N/A,,Clear,330,2012-11-06 22:55:00
5:55 PM,41.0,30.9,67,30.07,10.0,NNW,9.2,-,N/A,,Clear,330,2012-11-06 23:55:00
6:55 PM,41.0,32.0,70,30.10,10.0,NW,11.5,-,N/A,,Clear,320,2012-11-07 00:55:00
7:55 PM,37.0,30.9,79,30.11,10.0,NW,9.2,-,N/A,,Clear,310,2012-11-07 01:55:00
8:55 PM,33.1,28.9,85,30.11,10.0,NW,8.1,-,N/A,,Clear,320,2012-11-07 02:55:00
9:55 PM,32.0,28.9,88,30.12,10.0,WNW,6.9,-,N/A,,Clear,300,2012-11-07 03:55:00
10:55 PM,28.9,27.0,92,30.12,10.0,WNW,4.6,-,N/A,,Clear,300,2012-11-07 04:55:00
11:55 PM,28.0,26.1,92,30.13,10.0,WNW,5.8,-,N/A,,Clear,300,2012-11-07 05:55:00